Concordia, KS

2:12 PM CST on November 18, 2019 (GMT -0600)
Blosser Municipal

Weather History for KCNK - September, 2019

Change the Weather History Date:

Friday, September 20, 2019

  Actual Average Record
Temperature  
Mean Temperature 78 °F 66 °F  
Max Temperature 85 °F 78 °F 96 °F (1893)
Min Temperature 70 °F 54 °F 33 °F (1918)
Degree Days  
Heating Degree Days 0 3  
Month to date heating degree days 0 28  
Since 1 July heating degree days 0 31  
Cooling Degree Days 13 4  
Month to date cooling degree days 285 131  
Year to date cooling degree days 1562 1297  
Growing Degree Days 27 (Base 50)    
Moisture  
Dew Point 68 °F    
Average Humidity 74    
Maximum Humidity 90    
Minimum Humidity 58    
Precipitation  
Precipitation 0.00 in 0.10 in 2.38 in (1998)
Month to date precipitation 0.02 1.97  
Year to date precipitation 28.86 23.07  
Snow  
Snow 0.00 in 0.00 in 0.00 in ()
Month to date snowfall 0.0 0.0  
Year to date snowfall 32.3 13.7  
Since 1 July snowfall 0.0 0.0  
Snow Depth 0.00 in    
Sea Level Pressure  
Sea Level Pressure 29.88 in    
Wind  
Wind Speed 13 mph (SSE)    
Max Wind Speed 22 mph    
Max Gust Speed 31 mph    
Visibility 10 miles    
Events      
T = Trace of Precipitation, MM = Missing Value Source: NWS Daily Summary

Daily Weather History Graph

Daily Weather History Graph

Search for Another Location

Airport or City:

Astronomy

Sep. 20, 2019 Rise Set
Actual Time 7:16 AM CDT 7:31 PM CDT
Civil Twilight 6:49 AM CDT 7:58 PM CDT
Nautical Twilight 6:17 AM CDT 8:29 PM CDT
Astronomical Twilight 5:45 AM CDT 9:01 PM CDT
Moon 11:23 PM CDT (9/20) 1:20 PM CDT (9/20)
Length of Visible Light 13h 08m
Length of Day
12h 15m
Waning Gibbous, 65% of the Moon is Illuminated
Sep 20
Waning Gibbous
Sep 21
Last Quarter
Sep 28
New
Oct 5
First Quarter
Oct 13
Full

Hourly Weather History & Observations

Time (CDT) Temp. Heat Index Dew Point Humidity Pressure Visibility Wind Dir Wind Speed Gust Speed Precip Events Conditions
12:55 AM 78.1 °F - 68.0 °F 71% 29.90 in 10.0 mi South 12.7 mph - N/A   Clear
1:55 AM 75.9 °F - 68.0 °F 76% 29.91 in 10.0 mi South 10.4 mph - N/A   Clear
2:55 AM 75.0 °F - 68.0 °F 79% 29.91 in 10.0 mi South 9.2 mph - N/A   Clear
3:55 AM 73.9 °F - 68.0 °F 82% 29.89 in 10.0 mi SSE 6.9 mph - N/A   Clear
4:55 AM 72.0 °F - 68.0 °F 87% 29.88 in 10.0 mi SE 6.9 mph - N/A   Clear
5:55 AM 71.1 °F - 68.0 °F 90% 29.89 in 10.0 mi ESE 4.6 mph - N/A   Clear
6:55 AM 72.0 °F - 66.9 °F 84% 29.90 in 10.0 mi SSE 8.1 mph - N/A   Clear
7:55 AM 73.0 °F - 68.0 °F 84% 29.92 in 10.0 mi SSE 12.7 mph - N/A   Clear
8:55 AM 75.0 °F - 68.0 °F 79% 29.94 in 10.0 mi SSE 13.8 mph - N/A   Clear
9:55 AM 75.9 °F - 68.0 °F 76% 29.95 in 10.0 mi South 12.7 mph 23.0 mph N/A   Scattered Clouds
10:55 AM 79.0 °F - 68.0 °F 69% 29.94 in 10.0 mi South 12.7 mph - N/A   Mostly Cloudy
11:55 AM 82.0 °F 84.5 °F 66.9 °F 60% 29.92 in 10.0 mi SSE 13.8 mph 20.7 mph N/A   Scattered Clouds
12:55 PM 82.9 °F 85.0 °F 66.0 °F 56% 29.89 in 10.0 mi SSE 13.8 mph - N/A   Mostly Cloudy
1:55 PM 82.0 °F 84.5 °F 66.9 °F 60% 29.88 in 9.0 mi SSE 17.3 mph 24.2 mph N/A   Overcast
2:55 PM 82.9 °F 85.8 °F 68.0 °F 60% 29.87 in 10.0 mi SSE 18.4 mph 24.2 mph N/A   Mostly Cloudy
3:55 PM 82.9 °F 86.5 °F 69.1 °F 63% 29.84 in 10.0 mi SSE 19.6 mph 28.8 mph N/A   Scattered Clouds
4:10 PM 79.0 °F - 70.0 °F 74% 29.89 in 10.0 mi SE 20.7 mph 28.8 mph N/A   Mostly Cloudy
4:33 PM 79.0 °F - 70.0 °F 74% 29.88 in 10.0 mi SE 17.3 mph - N/A   Scattered Clouds
4:41 PM 79.0 °F - 69.1 °F 72% 29.88 in 10.0 mi SE 17.3 mph 27.6 mph N/A   Mostly Cloudy
4:55 PM 79.0 °F - 69.1 °F 72% 29.83 in 10.0 mi SE 16.1 mph 26.5 mph N/A   Mostly Cloudy
5:55 PM 77.0 °F - 69.1 °F 76% 29.83 in 10.0 mi SSE 17.3 mph 27.6 mph N/A   Overcast
6:50 PM 75.2 °F - 69.8 °F 83% 29.88 in 10.0 mi SE 18.4 mph 25.3 mph N/A   Scattered Clouds
6:55 PM 75.9 °F - 69.1 °F 79% 29.84 in 10.0 mi SSE 16.1 mph 25.3 mph N/A   Scattered Clouds
7:31 PM 75.0 °F - 69.1 °F 82% 29.87 in 10.0 mi North - - N/A   Overcast
7:55 PM 73.9 °F - 69.1 °F 85% 29.84 in 10.0 mi SSE 12.7 mph - N/A   Mostly Cloudy
8:02 PM 73.9 °F - 69.1 °F 85% 29.88 in 10.0 mi SSE 11.5 mph - N/A   Scattered Clouds
8:21 PM 73.9 °F - 69.1 °F 85% 29.87 in 10.0 mi SSE 12.7 mph - N/A   Mostly Cloudy
8:36 PM 73.9 °F - 69.1 °F 85% 29.87 in 10.0 mi SE 11.5 mph - N/A   Scattered Clouds
8:55 PM 73.0 °F - 69.1 °F 87% 29.83 in 10.0 mi SE 13.8 mph - N/A   Clear
9:55 PM 73.0 °F - 69.1 °F 87% 29.83 in 10.0 mi SSE 11.5 mph - N/A   Clear
10:55 PM 73.0 °F - 69.1 °F 87% 29.83 in 10.0 mi SSE 12.7 mph - N/A   Mostly Cloudy
11:55 PM 73.0 °F - 70.0 °F 90% 29.82 in 10.0 mi SSE 13.8 mph - N/A   Mostly Cloudy